When you browse on this site, cookies collect data to enhance your experience and personalize the content and advertising you see.
Visit our Privacy Policy to learn more. By continuing to use the site, you agree to this use of cookies and data.
  • In Österreich
  • Länderverzeichnis
  • Für 7 Tage
  • Wassertemperatur
  • Wetterkarte
  • News
  • Widgets
  • user-avatar
    Anmelden

    Stündliche Wetter Victoria

    Heute, 11 Dezember, Mittwoch

    Zeit Temperatur Niederschläge Wind Luftdruck Luftfeuchtigkeit
    00:00 +12°C° 0 mm 5 m/S 750 mmHg 59%
    01:00 +10°C° 0 mm 5 m/S 750 mmHg 66%
    02:00 +10°C° 0 mm 5 m/S 750 mmHg 69%
    03:00 +9°C° 0 mm 5 m/S 749 mmHg 73%
    04:00 +10°C° 0 mm 4 m/S 749 mmHg 78%
    05:00 +10°C° 0 mm 5 m/S 749 mmHg 72%
    06:00 +12°C° 0 mm 5 m/S 749 mmHg 66%
    07:00 +13°C° 0 mm 5 m/S 750 mmHg 60%
    08:00 +17°C° 0 mm 4 m/S 749 mmHg 51%
    09:00 +20°C° 0 mm 4 m/S 749 mmHg 42%
    10:00 +24°C° 0 mm 3 m/S 749 mmHg 32%
    11:00 +26°C° 0 mm 4 m/S 748 mmHg 28%
    12:00 +28°C° 0 mm 5 m/S 748 mmHg 24%
    13:00 +30°C° 0 mm 5 m/S 748 mmHg 20%
    14:00 +29°C° 0 mm 6 m/S 747 mmHg 23%
    15:00 +29°C° 0 mm 7 m/S 747 mmHg 25%
    16:00 +28°C° 0 mm 8 m/S 746 mmHg 28%
    17:00 +26°C° 0 mm 8 m/S 747 mmHg 33%
    18:00 +23°C° 0 mm 8 m/S 747 mmHg 38%
    19:00 +21°C° 0 mm 8 m/S 748 mmHg 44%
    20:00 +18°C° 0 mm 7 m/S 748 mmHg 50%
    21:00 +17°C° 0 mm 7 m/S 749 mmHg 56%
    22:00 +15°C° 0 mm 6 m/S 749 mmHg 62%
    23:00 +14°C° 0 mm 6 m/S 749 mmHg 67%

    Morgen, 12 Dezember, Donnerstag

    Zeit Temperatur Niederschläge Wind Luftdruck Luftfeuchtigkeit
    00:00 +13°C° 0 mm 6 m/S 749 mmHg 72%
    01:00 +13°C° 0 mm 6 m/S 749 mmHg 76%
    02:00 +12°C° 0 mm 5 m/S 749 mmHg 79%
    03:00 +10°C° 0 mm 5 m/S 749 mmHg 82%
    04:00 +11°C° 0 mm 4 m/S 749 mmHg 84%
    05:00 +12°C° 0 mm 5 m/S 749 mmHg 76%
    06:00 +14°C° 0 mm 5 m/S 749 mmHg 69%
    07:00 +15°C° 0 mm 5 m/S 750 mmHg 61%
    08:00 +17°C° 0 mm 6 m/S 749 mmHg 54%
    09:00 +20°C° 0 mm 7 m/S 749 mmHg 47%
    10:00 +22°C° 0 mm 7 m/S 749 mmHg 40%
    11:00 +24°C° 0 mm 7 m/S 749 mmHg 35%
    12:00 +26°C° 0 mm 8 m/S 748 mmHg 31%
    13:00 +27°C° 0 mm 8 m/S 748 mmHg 26%
    14:00 +27°C° 0 mm 8 m/S 748 mmHg 27%
    15:00 +26°C° 0 mm 9 m/S 748 mmHg 28%
    16:00 +26°C° 0 mm 9 m/S 747 mmHg 29%
    17:00 +23°C° 0 mm 9 m/S 748 mmHg 34%
    18:00 +21°C° 0 mm 8 m/S 748 mmHg 39%
    19:00 +18°C° 0 mm 8 m/S 749 mmHg 44%
    20:00 +17°C° 0 mm 7 m/S 749 mmHg 47%
    21:00 +15°C° 0 mm 7 m/S 750 mmHg 51%
    22:00 +14°C° 0 mm 6 m/S 751 mmHg 55%
    23:00 +13°C° 0 mm 6 m/S 750 mmHg 57%

    übermorgen, 13 Dezember, Freitag

    Zeit Temperatur Niederschläge Wind Luftdruck Luftfeuchtigkeit
    00:00 +11°C° 0 mm 7 m/S 750 mmHg 58%
    01:00 +11°C° 0 mm 7 m/S 750 mmHg 60%
    02:00 +10°C° 0 mm 6 m/S 750 mmHg 64%
    03:00 +9°C° 0 mm 5 m/S 750 mmHg 68%
    04:00 +9°C° 0 mm 5 m/S 749 mmHg 72%
    05:00 +10°C° 0 mm 5 m/S 750 mmHg 67%
    06:00 +12°C° 0 mm 5 m/S 750 mmHg 62%
    07:00 +13°C° 0 mm 5 m/S 750 mmHg 57%
    08:00 +16°C° 0 mm 5 m/S 750 mmHg 48%
    09:00 +19°C° 0 mm 5 m/S 750 mmHg 40%
    10:00 +22°C° 0 mm 6 m/S 750 mmHg 31%
    11:00 +23°C° 0 mm 6 m/S 749 mmHg 29%
    12:00 +24°C° 0 mm 6 m/S 748 mmHg 28%
    13:00 +26°C° 0 mm 6 m/S 748 mmHg 26%
    14:00 +26°C° 0 mm 7 m/S 747 mmHg 28%
    15:00 +26°C° 0 mm 7 m/S 747 mmHg 30%
    16:00 +26°C° 0 mm 7 m/S 747 mmHg 32%
    17:00 +23°C° 0 mm 7 m/S 747 mmHg 37%
    18:00 +22°C° 0 mm 6 m/S 748 mmHg 43%
    19:00 +20°C° 0 mm 6 m/S 748 mmHg 49%
    20:00 +19°C° 0 mm 5 m/S 748 mmHg 56%
    21:00 +17°C° 0 mm 4 m/S 749 mmHg 64%
    22:00 +15°C° 0 mm 4 m/S 749 mmHg 71%
    23:00 +14°C° 0 mm 3 m/S 749 mmHg 76%

    14 Dezember, Samstag

    Zeit Temperatur Niederschläge Wind Luftdruck Luftfeuchtigkeit
    00:00 +13°C° 0 mm 3 m/S 749 mmHg 82%
    01:00 +12°C° 0 mm 3 m/S 749 mmHg 87%
    02:00 +12°C° 0 mm 3 m/S 749 mmHg 89%
    03:00 +11°C° 0 mm 3 m/S 748 mmHg 91%
    04:00 +11°C° 0 mm 3 m/S 748 mmHg 93%
    05:00 +13°C° 0 mm 3 m/S 749 mmHg 84%
    06:00 +14°C° 0 mm 4 m/S 749 mmHg 76%
    07:00 +17°C° 0 mm 4 m/S 749 mmHg 67%
    08:00 +19°C° 0 mm 4 m/S 749 mmHg 58%
    09:00 +21°C° 0 mm 5 m/S 749 mmHg 49%
    10:00 +25°C° 0 mm 5 m/S 749 mmHg 39%
    11:00 +27°C° 0 mm 5 m/S 748 mmHg 34%
    12:00 +28°C° 0 mm 5 m/S 747 mmHg 28%
    13:00 +30°C° 0 mm 5 m/S 747 mmHg 22%
    14:00 +32°C° 0 mm 5 m/S 747 mmHg 21%
    15:00 +32°C° 0 mm 6 m/S 746 mmHg 21%
    16:00 +32°C° 0 mm 6 m/S 746 mmHg 20%
    17:00 +29°C° 0 mm 6 m/S 746 mmHg 25%
    18:00 +27°C° 0 mm 6 m/S 746 mmHg 30%
    19:00 +25°C° 0 mm 5 m/S 747 mmHg 35%
    20:00 +22°C° 0 mm 5 m/S 747 mmHg 42%
    21:00 +20°C° 0 mm 4 m/S 747 mmHg 49%
    22:00 +18°C° 0 mm 4 m/S 748 mmHg 56%
    23:00 +17°C° 0 mm 3 m/S 748 mmHg 61%

    15 Dezember, Sonntag

    Zeit Temperatur Niederschläge Wind Luftdruck Luftfeuchtigkeit
    00:00 +16°C° 0 mm 3 m/S 747 mmHg 65%
    01:00 +15°C° 0 mm 2 m/S 747 mmHg 70%
    02:00 +15°C° 0 mm 2 m/S 747 mmHg 75%
    03:00 +14°C° 0 mm 2 m/S 747 mmHg 79%
    04:00 +13°C° 0 mm 2 m/S 746 mmHg 83%
    05:00 +14°C° 0 mm 2 m/S 747 mmHg 76%
    06:00 +16°C° 0 mm 2 m/S 747 mmHg 68%
    07:00 +17°C° 0 mm 2 m/S 747 mmHg 60%
    08:00 +20°C° 0 mm 2 m/S 747 mmHg 48%
    09:00 +22°C° 0 mm 3 m/S 747 mmHg 37%
    10:00 +26°C° 0 mm 3 m/S 747 mmHg 26%
    11:00 +28°C° 0 mm 4 m/S 747 mmHg 22%
    12:00 +30°C° 0 mm 5 m/S 746 mmHg 17%
    13:00 +32°C° 0 mm 6 m/S 746 mmHg 13%
    14:00 +33°C° 0 mm 6 m/S 745 mmHg 12%
    15:00 +33°C° 0 mm 6 m/S 745 mmHg 12%
    16:00 +33°C° 0 mm 6 m/S 745 mmHg 11%
    17:00 +32°C° 0 mm 5 m/S 745 mmHg 13%
    18:00 +29°C° 0 mm 4 m/S 745 mmHg 15%
    19:00 +28°C° 0 mm 3 m/S 746 mmHg 18%
    20:00 +26°C° 0 mm 3 m/S 746 mmHg 22%
    21:00 +24°C° 0 mm 2 m/S 746 mmHg 27%
    22:00 +20°C° 0 mm 2 m/S 746 mmHg 32%
    23:00 +20°C° 0 mm 2 m/S 746 mmHg 34%

    16 Dezember, Montag

    Zeit Temperatur Niederschläge Wind Luftdruck Luftfeuchtigkeit
    00:00 +19°C° 0 mm 2 m/S 746 mmHg 37%
    01:00 +18°C° 0 mm 2 m/S 746 mmHg 39%
    02:00 +18°C° 0 mm 2 m/S 746 mmHg 42%
    03:00 +17°C° 0 mm 2 m/S 746 mmHg 45%
    04:00 +16°C° 0 mm 2 m/S 746 mmHg 47%
    05:00 +18°C° 0 mm 3 m/S 747 mmHg 43%
    06:00 +19°C° 0 mm 3 m/S 747 mmHg 39%
    07:00 +21°C° 0 mm 3 m/S 748 mmHg 36%
    08:00 +23°C° 0 mm 4 m/S 748 mmHg 33%
    09:00 +26°C° 0 mm 5 m/S 748 mmHg 30%
    10:00 +28°C° 0 mm 6 m/S 748 mmHg 27%
    11:00 +30°C° 0 mm 6 m/S 748 mmHg 25%
    12:00 +33°C° 0 mm 6 m/S 748 mmHg 24%
    13:00 +34°C° 0 mm 7 m/S 748 mmHg 22%
    14:00 +34°C° 0 mm 7 m/S 748 mmHg 22%
    15:00 +34°C° 0 mm 8 m/S 747 mmHg 22%
    16:00 +35°C° 0 mm 8 m/S 747 mmHg 21%
    17:00 +33°C° 0 mm 7 m/S 748 mmHg 24%
    18:00 +30°C° 0 mm 6 m/S 748 mmHg 27%
    19:00 +29°C° 0 mm 6 m/S 749 mmHg 30%
    20:00 +26°C° 0 mm 5 m/S 749 mmHg 35%
    21:00 +23°C° 0 mm 4 m/S 750 mmHg 40%
    22:00 +21°C° 0 mm 3 m/S 750 mmHg 45%
    23:00 +20°C° 0 mm 3 m/S 750 mmHg 49%
    Mehr zeigen